[[[{"header":{"parameterUnit":"kt","parameterCategory":2,"dx":1,"dy":1,"la1":30.253999710083008,"la2":30.299108505249023,"lo1":-89.0895004272461,"lo2":-89.04439544677734,"nx":28,"ny":28,"refTime":"2022-09-19T21:00:00:Z","depth":0,"parameterNumber":1,"parameterNumberName":"U-component_of_WINDS"},"data":[-2.2579,-2.2664,-2.2673,-2.2774,-2.2798,-2.2869,-2.2897,-2.2934,-2.2966,-2.3051,-2.3102,-2.3119,-2.3154,-2.3217,-2.3272,-2.3278,-2.3303,-2.3327,-2.3331,-2.3214,-2.3198,-2.3183,-2.3165,-2.3331,-2.3331,-2.3452,-2.3454,-2.3454,-2.2492,-2.2517,-2.2573,-2.2633,-2.2681,-2.2662,-2.2708,-2.275,-2.2814,-2.2853,-2.2903,-2.2979,-2.304,-2.3067,-2.3128,-2.3168,-2.3164,-2.3184,-2.3183,-2.319,-2.3064,-2.3043,-2.3187,-2.3187,-2.3187,-2.3187,-2.3187,-2.3187,-2.2338,-2.2388,-2.2429,-2.249,-2.2522,-2.2562,-2.2612,-2.2631,-2.2686,-2.275,-2.2748,-2.2821,-2.2862,-2.2939,-2.2966,-2.3024,-2.3003,-2.3028,-2.3035,-2.3043,-2.305,-2.2878,-2.3034,-2.3033,-2.3033,-2.3033,-2.3032,0,-2.2228,-2.2232,-2.2285,-2.2342,-2.2386,-2.2431,-2.2473,-2.2504,-2.2514,-2.2559,-2.2625,-2.2664,-2.2741,-2.2805,-2.2863,-2.2887,-2.2874,-2.2873,-2.2891,-2.2895,-2.2891,-2.2897,-2.2694,-2.2869,-2.2868,-2.2867,-2.2866,-2.2865,-2.2075,-2.2133,-2.2179,-2.2216,-2.2241,-2.23,-2.2337,-2.2341,-2.2381,-2.2433,-2.2478,-2.2541,-2.2592,-2.2695,-2.2719,-2.2777,-2.2772,-2.2838,-2.2781,-2.2781,-2.2777,-2.2775,-2.2782,-2.2851,-2.2853,-2.2854,-2.2855,0,-2.1989,-2.2002,-2.2094,-2.2134,-2.2146,-2.2206,-2.2241,-2.2291,-2.2305,-2.2376,-2.2393,-2.2415,-2.248,-2.2492,-2.2568,-2.2573,-2.2674,-2.2666,-2.266,-2.2661,-2.2723,-2.2718,-2.292,-2.2947,-2.2771,-2.2773,-2.2774,0,-2.1866,-2.1941,-2.1956,-2.2009,-2.2092,-2.2095,-2.2177,-2.2197,-2.2233,-2.2289,-2.2275,-2.2329,-2.2336,-2.2391,-2.2398,-2.2482,-2.2496,-2.2506,-2.2507,-2.2509,-2.2508,-2.2533,-2.2526,-2.2505,-2.2504,-2.2503,-2.2502,0,-2.1732,-2.1827,-2.1912,-2.1936,-2.1987,-2.2027,-2.205,-2.2089,-2.2125,-2.2174,-2.2198,-2.2254,-2.2286,-2.233,-2.2339,-2.23,-2.2441,-2.239,-2.2452,-2.2452,-2.2486,-2.2484,-2.2656,-2.2501,-2.25,-2.25,-2.25,0,-2.1636,-2.1684,-2.1804,-2.1847,-2.1872,-2.1927,-2.1984,-2.2034,-2.2076,-2.2084,-2.2123,-2.2116,-2.2189,-2.2137,-2.2238,-2.2185,-2.2217,-2.2232,-2.2237,-2.2247,-2.219,-2.2289,-2.2449,-2.2468,-2.2253,-2.2251,-2.2249,0,-2.148,-2.1605,-2.1608,-2.1722,-2.1782,-2.1763,-2.1825,-2.1863,-2.1879,-2.1932,-2.1949,-2.2009,-2.1973,-2.1994,-2.2042,-2.2063,-2.2132,-2.2053,-2.2133,-2.2136,-2.2126,-2.2272,-2.2294,-2.2411,-2.2222,-2.2225,-2.2227,0,-2.1362,-2.1423,-2.1443,-2.1472,-2.1522,-2.1571,-2.1641,-2.1702,-2.1737,-2.178,-2.1841,-2.1925,-2.1902,-2.1936,-2.1937,-2.1986,-2.2085,-2.1955,-2.1956,-2.1981,-2.2209,-2.223,-2.225,-2.2075,-2.2078,-2.208,-2.2206,0,-2.1219,-2.1282,-2.1336,-2.1397,-2.1437,-2.1508,-2.1522,-2.1562,-2.1558,-2.1574,-2.1661,-2.1696,-2.1758,-2.1782,-2.178,-2.1888,-2.1873,-2.1847,-2.18,-2.1895,-2.1937,-2.1954,-2.1736,-2.1735,-2.1734,-2.1733,0,0,-2.1069,-2.116,-2.1162,-2.123,-2.1264,-2.1245,-2.132,-2.1351,-2.1414,-2.1438,-2.1411,-2.1535,-2.1565,-2.1671,-2.1701,-2.1725,-2.1747,-2.1713,-2.1849,-2.1862,-2.1874,-2.1919,-2.1936,-2.1731,-2.1731,-2.173,-2.173,0,-2.102,-2.1049,-2.1123,-2.1154,-2.1202,-2.1214,-2.1232,-2.1275,-2.1289,-2.1374,-2.1358,-2.1412,-2.1511,-2.1545,-2.1576,-2.17,-2.1686,-2.1717,-2.178,-2.1837,-2.1851,-2.1864,-2.1911,-2.1927,-2.1727,-2.1727,-2.1727,0,-2.0908,-2.094,-2.0977,-2.1052,-2.1083,-2.1144,-2.1097,-2.1163,-2.1209,-2.1185,-2.1271,-2.1292,-2.1339,-2.1435,-2.1479,-2.1457,-2.163,-2.1577,-2.1584,-2.159,-2.1646,-2.1663,-2.1679,-2.1478,-2.1477,-2.1476,0,0,-2.0864,-2.0923,-2.0959,-2.1042,-2.1063,-2.1083,-2.1116,-2.1117,-2.1158,-2.1175,-2.1203,-2.1244,-2.1302,-2.134,-2.1395,-2.1499,-2.151,-2.1546,-2.1557,-2.1567,-2.1578,-2.1637,-2.1654,-2.1473,-2.1473,-2.1472,0,0,-2.0844,-2.0889,-2.0878,-2.0977,-2.1016,-2.1058,-2.1109,-2.1097,-2.1148,-2.1142,-2.1146,-2.1157,-2.1248,-2.127,-2.1221,-2.1379,-2.1331,-2.1343,-2.1362,-2.1377,-2.1389,-2.1383,-2.118,0,0,0,0,0,-2.0801,-2.0883,-2.0873,-2.0891,-2.0987,-2.1064,-2.1076,-2.1081,-2.1048,-2.1088,-2.1109,-2.1091,-2.1245,-2.1202,-2.1221,-2.1276,-2.1428,-2.1436,-2.1443,-2.1492,-2.1507,-2.152,0,0,0,0,0,0,-2.0809,-2.0831,-2.0871,-2.0916,-2.0937,-2.1061,-2.1006,-2.1009,-2.1044,-2.1039,-2.1088,-2.1093,-2.1099,-2.1193,-2.121,-2.1262,-2.1174,-2.1431,-2.1438,-2.1444,-2.1497,-2.151,-2.1521,0,0,0,0,0,-2.0815,-2.0833,-2.0984,-2.0915,-2.0933,-2.096,-2.1002,-2.1005,-2.1032,-2.1065,-2.107,-2.1033,-2.1101,-2.1115,-2.1203,-2.1254,-2.1163,-2.1169,-2.1435,-2.1441,-2.1445,-2.1503,0,0,0,0,0,0,-2.0819,-2.0836,-2.0988,-2.0994,-2.0884,-2.0953,-2.0964,-2.1002,-2.1056,-2.1061,-2.101,-2.1006,-2.1103,-2.1114,-2.1125,-2.1251,-2.1153,-2.116,-2.1164,-2.1439,-2.1443,-2.1447,0,0,0,0,0,0,-2.0826,-2.0841,-2.0991,-2.0952,-2.0954,-2.0947,-2.0957,-2.1032,-2.1057,-2.0998,-2.0996,-2.1008,-2.1086,-2.1113,-2.1121,-2.1238,-2.1146,-2.1152,-2.1156,-2.1159,-2.1443,-2.1446,0,0,0,0,0,0,-2.0833,-2.0845,-2.0951,-2.0952,-2.0953,-2.102,-2.1013,-2.1111,-2.1023,-2.0996,-2.1015,-2.1012,-2.1086,-2.1095,-2.1119,-2.1233,-2.1237,-2.1146,-2.115,-2.1153,-2.1155,0,0,0,0,0,0,0,-2.0838,-2.0751,-2.0953,-2.0952,-2.0953,-2.1049,-2.105,-2.1052,-2.1022,-2.1019,-2.1016,-2.1013,-2.1112,-2.1118,-2.1125,-2.1228,0,0,-2.1146,-2.1149,0,0,0,0,0,0,0,0,-2.0745,-2.0749,-2.0953,-2.0954,-2.0955,-2.1049,-2.105,-2.1051,-2.1022,-2.1019,-2.1017,-2.1014,-2.1113,-2.1119,-2.1124,0,0,0,0,0,0,0,0,0,0,0,0,0,0,0,-2.0953,-2.0954,0,-2.1049,-2.105,-2.1051,-2.1021,-2.1019,-2.1017,-2.1015,-2.1115,-2.1119,-2.1124,0,0,0,0,0,0,0,0,0,0,0,0,0,0,0,0,0,0,0,0,0,0,0,0,0,0,0,0,0,0,0,0,0,0,0,0,0,0,0,0,0,0,0,0,0,0,0,0,0,0,0,0,0,0,0,0,0,0,0,0,0,0,0,0,0,0,0,0,0]}],[{"header":{"parameterUnit":"kt","parameterCategory":2,"dx":1,"dy":1,"la1":30.253999710083008,"la2":30.299108505249023,"lo1":-89.0895004272461,"lo2":-89.04439544677734,"nx":28,"ny":28,"refTime":"2022-09-19T21:00:00:Z","depth":0,"parameterNumber":2,"parameterNumberName":"V-component_of_WINDS"},"data":[-7.7687,-7.7772,-7.7772,-7.7867,-7.7881,-7.7946,-7.7967,-7.7995,-7.8015,-7.8089,-7.813,-7.8133,-7.8149,-7.8195,-7.8237,-7.8237,-7.8256,-7.8289,-7.8283,-7.8139,-7.8119,-7.81,-7.8082,-7.8293,-7.8293,-7.8434,-7.8435,-7.8437,-7.7587,-7.7603,-7.7653,-7.7699,-7.7742,-7.771,-7.7742,-7.7779,-7.7835,-7.786,-7.7899,-7.7962,-7.801,-7.8013,-7.8058,-7.8095,-7.8081,-7.8107,-7.8106,-7.8109,-7.7954,-7.7935,-7.8118,-7.8118,-7.8118,-7.8118,-7.8118,-7.8118,-7.7404,-7.7454,-7.7482,-7.7535,-7.7557,-7.7587,-7.7634,-7.7638,-7.7683,-7.7731,-7.7716,-7.7778,-7.7799,-7.7848,-7.7862,-7.7909,-7.7878,-7.7905,-7.7912,-7.792,-7.7931,-7.7733,-7.7915,-7.7915,-7.7914,-7.7914,-7.7914,0,-7.7269,-7.7265,-7.7311,-7.7358,-7.7395,-7.7429,-7.746,-7.7488,-7.747,-7.7508,-7.7562,-7.7592,-7.7649,-7.7698,-7.7736,-7.7744,-7.7712,-7.7706,-7.7725,-7.7736,-7.7742,-7.7743,-7.7494,-7.7701,-7.7699,-7.7697,-7.7696,-7.7696,-7.7087,-7.7144,-7.717,-7.7203,-7.7218,-7.727,-7.73,-7.728,-7.7312,-7.7344,-7.7387,-7.7435,-7.7473,-7.7556,-7.7554,-7.7596,-7.758,-7.7661,-7.7586,-7.7595,-7.7584,-7.7583,-7.7589,-7.7676,-7.7678,-7.7681,-7.7682,0,-7.6985,-7.6979,-7.7067,-7.7084,-7.709,-7.715,-7.7164,-7.7211,-7.7207,-7.7271,-7.7284,-7.7278,-7.7328,-7.7314,-7.7367,-7.7358,-7.7456,-7.7438,-7.745,-7.7447,-7.7519,-7.7514,-7.7751,-7.7783,-7.756,-7.7562,-7.7564,0,-7.6828,-7.6902,-7.689,-7.694,-7.7023,-7.7001,-7.7083,-7.7088,-7.7105,-7.7155,-7.7115,-7.7162,-7.7136,-7.718,-7.7166,-7.7243,-7.7252,-7.725,-7.7246,-7.7255,-7.7256,-7.7271,-7.7262,-7.723,-7.7229,-7.7228,-7.7227,0,-7.6671,-7.6749,-7.6831,-7.6848,-7.6871,-7.691,-7.6921,-7.6939,-7.6967,-7.7,-7.7018,-7.7056,-7.7078,-7.7108,-7.709,-7.704,-7.7182,-7.711,-7.718,-7.7181,-7.7214,-7.7212,-7.7425,-7.7225,-7.7225,-7.7224,-7.7224,0,-7.6542,-7.658,-7.6698,-7.6718,-7.6738,-7.679,-7.683,-7.687,-7.6892,-7.6888,-7.6912,-7.6884,-7.6948,-7.6878,-7.6966,-7.6907,-7.693,-7.6933,-7.6938,-7.6944,-7.6867,-7.6992,-7.7195,-7.7217,-7.6949,-7.6946,-7.6944,0,-7.6366,-7.6483,-7.6466,-7.6577,-7.6629,-7.6583,-7.664,-7.666,-7.6659,-7.6701,-7.6697,-7.6744,-7.6688,-7.6701,-7.6746,-7.6744,-7.6821,-7.6733,-7.6793,-7.6796,-7.6793,-7.6979,-7.7014,-7.7152,-7.6914,-7.6917,-7.692,0,-7.6228,-7.6257,-7.6278,-7.6297,-7.632,-7.6362,-7.6427,-7.6469,-7.6499,-7.6523,-7.6578,-7.664,-7.6602,-7.6622,-7.6601,-7.6649,-7.6768,-7.6601,-7.6601,-7.6634,-7.6897,-7.6931,-7.6954,-7.6743,-7.6747,-7.675,-7.6896,0,-7.6042,-7.6098,-7.6153,-7.6192,-7.6222,-7.6289,-7.6275,-7.6308,-7.6287,-7.6283,-7.6359,-7.6368,-7.6408,-7.6428,-7.6406,-7.652,-7.6499,-7.6456,-7.6387,-7.6509,-7.6557,-7.6576,-7.6318,-7.6316,-7.6314,-7.6312,0,0,-7.5876,-7.5956,-7.5932,-7.5995,-7.6019,-7.5969,-7.6042,-7.6058,-7.6091,-7.6108,-7.607,-7.6161,-7.6169,-7.6263,-7.63,-7.6314,-7.6334,-7.6291,-7.645,-7.6466,-7.648,-7.6532,-7.6552,-7.6309,-7.6308,-7.6308,-7.6307,0,-7.5806,-7.5819,-7.5892,-7.5909,-7.5933,-7.5925,-7.5943,-7.5956,-7.5956,-7.603,-7.5986,-7.6029,-7.6099,-7.6116,-7.6133,-7.6279,-7.6243,-7.6292,-7.6378,-7.6433,-7.6451,-7.6466,-7.6521,-7.6541,-7.6303,-7.6303,-7.6303,0,-7.567,-7.5681,-7.5714,-7.5765,-7.5779,-7.5831,-7.5757,-7.5813,-7.5852,-7.5789,-7.5863,-7.5866,-7.5884,-7.5974,-7.6013,-7.5979,-7.6161,-7.6098,-7.6109,-7.6114,-7.6166,-7.6187,-7.6206,-7.5955,-7.5953,-7.5952,0,0,-7.561,-7.5661,-7.5665,-7.5748,-7.5761,-7.5749,-7.5774,-7.5755,-7.5774,-7.5782,-7.5784,-7.5802,-7.5843,-7.5871,-7.5908,-7.6008,-7.601,-7.6056,-7.6073,-7.6086,-7.6098,-7.6154,-7.6175,-7.5948,-7.5948,-7.5948,0,0,-7.5581,-7.559,-7.5566,-7.5661,-7.5682,-7.5689,-7.574,-7.571,-7.5742,-7.5732,-7.57,-7.5703,-7.5786,-7.5789,-7.5734,-7.5883,-7.5815,-7.5828,-7.5879,-7.5899,-7.5915,-7.5913,-7.5657,0,0,0,0,0,-7.5501,-7.5589,-7.5567,-7.5581,-7.5642,-7.5702,-7.5709,-7.5687,-7.5641,-7.5682,-7.5678,-7.5636,-7.5753,-7.5705,-7.5717,-7.5778,-7.5893,-7.5903,-7.5912,-7.6001,-7.6023,-7.6041,0,0,0,0,0,0,-7.5507,-7.5523,-7.5565,-7.5577,-7.559,-7.5699,-7.5616,-7.5612,-7.5636,-7.5627,-7.5639,-7.5637,-7.5617,-7.5696,-7.5708,-7.5767,-7.5653,-7.5897,-7.5905,-7.5913,-7.6009,-7.6026,-7.6041,0,0,0,0,0,-7.5511,-7.5524,-7.5628,-7.5575,-7.5587,-7.5578,-7.5612,-7.5608,-7.5626,-7.562,-7.5617,-7.5607,-7.5619,-7.5627,-7.5703,-7.5762,-7.5645,-7.5649,-7.5903,-7.5909,-7.5915,-7.6017,0,0,0,0,0,0,-7.5513,-7.552,-7.563,-7.5633,-7.554,-7.5571,-7.5575,-7.5605,-7.5617,-7.5615,-7.5586,-7.5579,-7.5622,-7.5627,-7.5634,-7.5762,-7.5638,-7.5642,-7.5645,-7.5908,-7.5913,-7.5917,0,0,0,0,0,0,-7.5512,-7.5523,-7.5631,-7.5588,-7.5586,-7.5565,-7.5569,-7.5628,-7.5618,-7.5582,-7.5576,-7.5583,-7.5611,-7.5628,-7.5633,-7.5727,-7.5633,-7.5637,-7.564,-7.5642,-7.5912,-7.5916,0,0,0,0,0,0,-7.5516,-7.5525,-7.5587,-7.5586,-7.5583,-7.5611,-7.5617,-7.568,-7.5584,-7.5582,-7.5574,-7.557,-7.5613,-7.5617,-7.5633,-7.5725,-7.5727,-7.5633,-7.5636,-7.5638,-7.5639,0,0,0,0,0,0,0,-7.5519,-7.5467,-7.5615,-7.5583,-7.5581,-7.5657,-7.5658,-7.5658,-7.5583,-7.5579,-7.5575,-7.5572,-7.5607,-7.5612,-7.5617,-7.5723,0,0,-7.5632,-7.5634,0,0,0,0,0,0,0,0,-7.5463,-7.5466,-7.5615,-7.5616,-7.5616,-7.5657,-7.5658,-7.5658,-7.5582,-7.5579,-7.5576,-7.5573,-7.5609,-7.5613,-7.5617,0,0,0,0,0,0,0,0,0,0,0,0,0,0,0,-7.5615,-7.5616,0,-7.5657,-7.5658,-7.5658,-7.5582,-7.5579,-7.5577,-7.5574,-7.561,-7.5613,-7.5616,0,0,0,0,0,0,0,0,0,0,0,0,0,0,0,0,0,0,0,0,0,0,0,0,0,0,0,0,0,0,0,0,0,0,0,0,0,0,0,0,0,0,0,0,0,0,0,0,0,0,0,0,0,0,0,0,0,0,0,0,0,0,0,0,0,0,0,0,0]}]]]